INTELSAT 33E DEB, 61995

Orbit data source: Space-Track

INTELSAT 33E DEB, 61995 is space debris in GEO originally from a launch on Wed, 24 Aug 2016 UTC launched from the French Guiana (FRGUI). Debris objects in space refer to the collection of defunct objects orbiting the Earth. Examples of debris include non-operational satellites, rocket bodies, and fragments generated from explosions, collisions, or faulty payload assembly.

Not visible in the next 10 days
Identifier
61995, 2016-053M
Orbit
GEO
Country
Flag of USUS / ITSO
Related business
Manufacturer
Boeing/ES
Mission
Spacecraft
Bus & Motor
Unknown
Mass
Unknown
Launch date (UTC)
2016-08-24 (10 years ago)
Launch vehicle
Unknown
Launch site
French Guiana (FRGUI)
Object type
Payload
Rocket body
Debris
Shape & HBR
Unknown shape, 1.1 m
Radar Cross Section
RCS unknown

Expand to show TLE details & history
Last TLE update: 10 hours ago

TLE from 10 hours ago
0 INTELSAT 33E DEB
1 61995U 16053M   26121.17278674  .00000037  00000-0  00000-0 0  9999
2 61995   1.4240  83.2240 0054152 283.6576  75.7952  1.01032045  5653
Epoch: 2026-05-01T04:08Z
TLE epoch observation values (Epoch: 2026-05-01T04:08:48.774Z)
Latitude
-0.00001°
Longitude
161.96508°
Altitude
35,518.483 km
Speed
3.087 km/s
True Right ascension
05h 33m 06s
True Declination
0° 00' 00"
Sunlit
Object was in daylight at epoch
Visualization orbit readout
Latitude
Unknown
Longitude
Unknown
Altitude
Unknown
Speed
Unknown
Apparent Right ascension
Unknown
Apparent Declination
Unknown
Sunlit
N/A
Visualization observer readout
Local Sidereal Time
21:43:16
Azimuth
Unknown
Elevation
Unknown
Doppler factor
Unknown
Orbital elements
Apogee altitude
35,803.068 km
Perigee altitude
35,348.689 km
Semi-major axis
41,954.016 km
Eccentricity
0.00542
Inclination
1.424°
RAAN
83.224°
Arg. of periapsis
283.6576°
True anomaly
76.39775°
Mean anomaly
75.7952°
Eccentric anomaly
76.09638°
Mean motion
0.25257 °/min
Orbital period
1,425.34 mins
BSTAR
0
Loading maneuver chart data...
Computing Atmospheric mass density...
Loading historical data...
Loading historical data...
Loading historical data...
Loading historical data...
Loading historical data...
Loading historical data...
Loading historical data...

Documentation

Showing up to 5 results
|